Powrót do katalogu

SL-8 R/B

AktywnyPO
NORAD 12508·ROCKET BODY·🇷🇺 Russia

Wystrzelony Jun 4, 1981 z Plesetsk Cosmodrome

Loading…

Następne Przeloty (najbliższe 24 godziny)

TLE

ŚwieżeSource: Space-Track

Epoka: Sep 14, 2026, 03:44 UTC

1 12508U 81053B   26257.15620794  .00000066  00000-0  51162-4 0  9990
2 12508  82.9618 161.8361 0038481 121.5840 238.9082 13.76650679279654

Śledź SL-8 R/B w czasie rzeczywistym z AllMySat

Download on the App Store